Snowfall_Accumulation
0.9 0.8 1.0 1.0 1.0 1.2 1.6 2.7 4.5 3.8 1.0 0.3 0.3 0.3 0.4 0.3 0.3 0.4 0.3 0.2 0.3 0.4 0.5 0.4 0.3 0.1 0.1 0.1 0.0 0.0 0.0 0.0 0.1 0.1 0.0 0.1 0.1 0.0
1.1 1.2 1.1 1.1 1.2 1.2 1.4 1.7 2.9 4.7 3.4 0.6 0.4 0.3 0.4 0.4 0.3 0.6 0.5 0.2 0.3 0.3 0.3 0.4 0.3 0.2 0.2 0.1 0.1 0.1 0.0 0.0 0.1 0.1 0.1 0.0 0.1 0.1
1.2 1.4 1.6 1.5 1.5 1.4 1.5 1.8 2.2 3.6 4.6 1.2 0.3 0.3 0.4 0.5 0.4 0.4 0.4 0.3 0.4 0.2 0.2 0.3 0.3 0.3 0.3 0.2 0.1 0.1 0.1 0.1 0.1 0.1 0.1 0.0 0.0 0.0
1.5 1.7 1.8 1.8 2.0 1.8 2.0 2.1 2.2 2.7 4.1 3.0 0.8 0.6 0.6 0.5 0.4 0.4 0.3 0.3 0.4 0.2 0.1 0.3 0.4 0.4 0.4 0.5 0.2 0.2 0.2 0.1 0.1 0.1 0.1 0.0 0.0 0.1
1.8 2.2 2.3 2.6 2.8 2.4 2.5 2.5 2.2 2.0 2.6 3.4 1.9 0.8 0.7 0.6 0.5 0.6 0.5 0.5 0.2 0.2 0.2 0.2 0.3 0.4 0.4 0.5 0.5 0.3 0.3 0.2 0.1 0.2 0.2 0.2 0.1 0.1
2.2 2.5 3.0 3.6 4.1 4.2 4.0 3.5 2.7 3.0 3.1 3.7 3.0 1.9 1.5 1.1 1.3 1.5 1.2 0.7 0.5 0.4 0.3 0.2 0.3 0.3 0.4 0.5 0.4 0.5 0.5 0.4 0.4 0.4 0.4 0.3 0.3 0.2
3.2 2.9 2.7 3.2 4.0 5.0 5.9 6.0 5.5 6.5 5.7 5.8 4.9 3.6 2.9 2.8 2.8 2.1 2.4 1.5 0.8 0.4 0.5 0.3 0.3 0.3 0.3 0.2 0.2 0.2 0.7 0.6 0.5 0.6 0.5 0.4 0.3 0.3
4.6 3.7 3.0 2.7 2.9 2.8 3.6 4.3 5.1 7.8 8.8 8.8 8.1 7.1 4.6 3.1 3.1 3.2 4.0 4.5 3.5 0.9 0.9 0.7 0.4 0.5 0.4 0.3 0.2 0.3 0.6 0.7 0.7 0.7 0.6 0.6 0.5 0.5
3.8 3.4 3.2 2.7 2.6 2.7 3.1 2.4 2.9 3.8 5.8 8.1 10.4 8.1 5.6 4.8 4.9 5.6 5.2 5.7 4.2 2.2 2.3 2.8 1.0 1.1 0.8 0.3 0.3 0.4 0.5 0.9 0.9 0.8 0.9 0.9 1.0 0.7
3.0 3.3 3.5 3.4 3.0 3.5 4.2 4.6 4.1 3.8 4.5 6.4 8.6 7.3 5.8 5.6 6.1 7.9 7.5 7.8 4.8 2.6 2.4 5.0 1.7 1.2 0.8 0.6 0.2 0.3 0.5 0.8 1.2 1.1 1.0 1.1 1.2 1.1
2.8 3.9 4.2 3.9 3.7 4.1 6.1 6.7 5.0 3.8 3.1 4.4 5.4 6.1 5.3 5.6 7.6 10.3 13.8 14.6 11.6 4.3 2.9 4.9 2.6 1.7 1.0 1.0 0.5 0.4 0.5 0.6 0.8 1.1 1.1 1.4 1.4 1.4
2.9 3.8 5.6 5.4 5.1 4.7 6.6 7.7 7.3 4.5 3.8 3.9 4.1 4.2 4.4 5.1 6.0 9.1 11.8 15.5 14.1 10.1 4.8 4.4 4.1 5.0 5.0 1.6 0.9 0.6 0.6 0.7 0.8 0.9 1.1 1.3 1.6 1.6
4.7 5.0 5.6 5.2 4.9 5.0 5.8 7.0 7.6 6.5 5.9 5.7 5.0 4.4 4.6 5.2 6.2 7.7 9.2 12.4 15.1 12.7 7.8 7.8 8.2 7.3 8.9 5.3 2.0 1.4 1.0 0.8 0.6 0.6 0.6 0.9 1.3 1.9
5.5 4.5 5.1 5.2 5.3 5.0 4.7 4.4 4.8 5.6 6.4 6.1 5.4 4.4 4.3 4.8 5.8 7.0 9.2 10.4 10.9 10.9 8.4 9.3 12.8 10.8 12.0 9.8 5.3 2.7 1.8 1.1 1.2 1.2 1.0 1.0 1.1 1.5
5.2 6.1 5.4 4.8 4.3 3.6 2.9 3.4 3.7 4.6 5.4 5.9 5.1 4.1 4.0 3.7 4.5 5.8 7.4 8.7 9.2 9.2 7.9 7.3 9.7 9.7 12.1 12.5 7.6 4.6 3.4 2.3 1.8 1.9 1.7 1.7 1.7 2.0
4.3 4.6 4.5 3.4 2.8 2.4 2.1 2.5 2.8 4.0 5.6 6.3 5.1 3.9 3.6 4.1 4.9 5.7 7.5 8.8 11.0 10.2 8.8 7.2 7.1 9.4 11.6 9.7 8.9 7.2 5.1 4.7 3.4 2.8 2.3 2.2 2.0 1.7
7.2 6.9 5.6 4.4 3.8 3.2 2.7 2.4 2.7 3.6 4.6 4.8 5.1 5.1 4.9 4.7 5.3 5.9 7.6 9.5 11.4 11.0 10.6 9.6 9.3 9.8 11.0 11.4 11.1 8.3 5.9 5.0 4.3 4.1 3.7 3.4 2.6 2.2
7.4 8.0 5.9 4.8 4.5 4.2 3.7 3.4 3.1 3.6 4.0 4.5 5.0 5.3 5.8 5.7 5.7 5.7 7.6 9.7 10.9 10.7 10.8 10.7 12.2 14.1 14.6 14.4 12.2 9.6 7.3 5.5 4.7 4.4 4.2 4.9 3.9 2.6
6.1 5.8 4.9 4.7 4.7 4.7 4.6 4.5 3.9 3.7 4.3 5.1 5.4 5.6 6.2 6.7 6.9 6.6 7.2 8.7 9.7 10.1 10.5 11.3 13.5 17.7 20.7 17.9 12.8 10.1 8.8 6.9 5.9 5.2 4.3 4.7 5.0 3.7
4.2 4.8 4.9 4.6 5.1 5.2 5.1 4.8 4.4 4.4 4.8 5.2 5.5 5.4 6.2 7.2 7.5 7.4 7.8 9.0 10.0 10.7 11.1 11.5 13.6 16.4 19.9 17.4 14.8 12.7 8.5 8.6 8.0 7.3 5.4 4.5 3.9 3.2
4.3 4.5 4.6 4.8 5.2 5.0 5.1 5.1 5.2 5.1 4.9 5.2 5.4 5.3 5.8 7.3 7.6 7.0 7.5 8.4 10.5 12.0 12.1 12.1 11.1 12.5 15.0 16.8 18.5 16.6 13.3 8.9 6.9 8.4 8.3 8.3 7.8 6.8
4.8 4.9 4.7 4.7 4.7 5.2 5.3 5.2 5.2 4.7 4.6 4.9 5.1 5.2 5.8 6.9 7.4 7.3 7.9 9.1 10.0 10.8 11.1 11.3 10.7 13.8 18.4 20.6 18.9 16.2 15.3 12.7 11.2 7.4 6.7 7.8 11.5 12.3
5.9 5.8 5.0 4.6 4.8 5.0 5.2 5.2 5.2 4.6 4.5 4.9 5.4 5.7 6.0 7.0 7.2 7.8 8.2 8.8 9.7 10.1 10.8 11.7 12.9 15.3 17.7 17.7 17.9 16.5 14.8 12.5 12.4 12.0 12.1 6.1 5.1 5.5